ASA1444 PANC-PAOM

Flight info

Callsign ASA1444
Flight time 1h 15m
Altitude 38000
Route TED J111 UNK GOLOS WONAB OME
Aircraft B38M/M-SDE1FGHILORVWXY/HB1

Departure

Time 2026-04-26 22:46
Airport Ted Stevens Anchorage International Airport (PANC)

Arrival

Time 2026-04-27 00:02
Airport Nome Airport (PAOM)
Time Latitude Longitude Altitude Speed Heading
2026-04-26 22:17 61.17247 -149.98321 114 ft 0 kts 340°
2026-04-26 22:36 61.17242 -149.98317 114 ft 2 kts 340°
2026-04-26 22:36 61.17223 -149.98304 115 ft 3 kts 340°
2026-04-26 22:37 61.17204 -149.98289 113 ft 3 kts 340°
2026-04-26 22:37 61.17185 -149.98275 113 ft 3 kts 340°
2026-04-26 22:37 61.17167 -149.98263 116 ft 3 kts 350°
2026-04-26 22:37 61.17147 -149.98260 112 ft 3 kts 10°
2026-04-26 22:38 61.17129 -149.98272 116 ft 3 kts 39°
2026-04-26 22:38 61.17118 -149.98298 114 ft 2 kts 80°
2026-04-26 22:38 61.17117 -149.98320 117 ft 2 kts 90°
2026-04-26 22:38 61.17117 -149.98360 116 ft 2 kts 90°
2026-04-26 22:39 61.17117 -149.98374 116 ft 0 kts 90°
2026-04-26 22:40 61.17117 -149.98373 116 ft 1 kts 90°
2026-04-26 22:40 61.17117 -149.98334 115 ft 6 kts 90°
2026-04-26 22:41 61.17117 -149.98179 117 ft 16 kts 90°
2026-04-26 22:41 61.17117 -149.97867 115 ft 27 kts 90°
2026-04-26 22:41 61.17120 -149.97451 108 ft 31 kts 86°
2026-04-26 22:41 61.17127 -149.97014 101 ft 27 kts 90°
2026-04-26 22:42 61.17127 -149.96591 99 ft 29 kts 90°
2026-04-26 22:42 61.17128 -149.96175 99 ft 28 kts 90°
2026-04-26 22:42 61.17128 -149.95759 99 ft 29 kts 90°
2026-04-26 22:42 61.17129 -149.95339 99 ft 29 kts 89°
2026-04-26 22:43 61.17129 -149.94936 99 ft 25 kts 95°
2026-04-26 22:43 61.17052 -149.94836 99 ft 8 kts 188°
2026-04-26 22:43 61.17006 -149.94891 101 ft 7 kts 225°
2026-04-26 22:43 61.16984 -149.94976 103 ft 8 kts 256°
2026-04-26 22:44 61.16982 -149.95064 103 ft 4 kts 270°
2026-04-26 22:44 61.16982 -149.95066 103 ft 0 kts 270°
2026-04-26 22:45 61.16982 -149.95142 103 ft 19 kts 270°
2026-04-26 22:46 61.16982 -149.96032 103 ft 102 kts 270°
2026-04-26 22:46 61.16979 -149.98000 114 ft 168 kts 270°
2026-04-26 22:46 61.16991 -150.00674 533 ft 194 kts 269°
2026-04-26 22:46 61.17011 -150.03499 1511 ft 199 kts 268°
2026-04-26 22:47 61.17040 -150.06419 2412 ft 207 kts 268°
2026-04-26 22:47 61.17084 -150.09517 3126 ft 227 kts 269°
2026-04-26 22:47 61.17146 -150.13000 3738 ft 253 kts 270°
2026-04-26 22:47 61.17189 -150.14781 4147 ft 261 kts 272°
2026-04-26 22:48 61.17760 -150.18383 5232 ft 272 kts 300°
2026-04-26 22:48 61.18916 -150.21557 6302 ft 277 kts 307°
2026-04-26 22:48 61.20132 -150.24662 7389 ft 279 kts 307°
2026-04-26 22:48 61.21346 -150.27829 8434 ft 281 kts 306°
2026-04-26 22:49 61.22145 -150.29970 9049 ft 286 kts 305°
2026-04-26 22:49 61.23376 -150.33299 9876 ft 295 kts 305°
2026-04-26 22:49 61.24648 -150.36693 10722 ft 299 kts 305°
2026-04-26 22:49 61.25945 -150.40085 11637 ft 301 kts 306°
2026-04-26 22:50 61.27254 -150.43616 12184 ft 317 kts 304°
2026-04-26 22:50 61.28637 -150.47372 12559 ft 337 kts 304°
2026-04-26 22:50 61.30097 -150.51308 13027 ft 351 kts 304°
2026-04-26 22:50 61.31612 -150.55374 13656 ft 358 kts 304°
2026-04-26 22:51 61.33148 -150.59491 14382 ft 361 kts 304°
2026-04-26 22:51 61.34695 -150.63640 15046 ft 364 kts 304°
2026-04-26 22:51 61.36237 -150.67780 15724 ft 367 kts 304°
2026-04-26 22:51 61.37808 -150.72005 16380 ft 370 kts 304°
2026-04-26 22:52 61.39395 -150.76283 17002 ft 375 kts 304°
2026-04-26 22:52 61.40998 -150.80611 17625 ft 378 kts 304°
2026-04-26 22:52 61.42611 -150.84973 18264 ft 381 kts 304°
2026-04-26 22:52 61.44237 -150.89381 18786 ft 384 kts 304°
2026-04-26 22:53 61.45873 -150.93825 19312 ft 387 kts 303°
2026-04-26 22:53 61.47517 -150.98295 19841 ft 389 kts 303°
2026-04-26 22:53 61.49173 -151.02809 20362 ft 392 kts 303°
2026-04-26 22:53 61.50838 -151.07358 20875 ft 395 kts 303°
2026-04-26 22:54 61.52513 -151.11941 21373 ft 397 kts 303°
2026-04-26 22:54 61.54196 -151.16557 21868 ft 400 kts 303°
2026-04-26 22:54 61.55891 -151.21215 22377 ft 403 kts 303°
2026-04-26 22:54 61.57599 -151.25916 22932 ft 406 kts 303°
2026-04-26 22:55 61.59312 -151.30641 23438 ft 409 kts 302°
2026-04-26 22:55 61.61042 -151.35427 23851 ft 413 kts 302°
2026-04-26 22:55 61.62786 -151.40258 24328 ft 414 kts 302°
2026-04-26 22:55 61.64527 -151.45093 24801 ft 415 kts 302°
2026-04-26 22:56 61.66271 -151.49944 25263 ft 416 kts 301°
2026-04-26 22:56 61.68014 -151.54803 25722 ft 416 kts 301°
2026-04-26 22:56 61.69765 -151.59697 26158 ft 418 kts 301°
2026-04-26 22:56 61.71517 -151.64601 26606 ft 419 kts 300°
2026-04-26 22:57 61.73249 -151.69455 26990 ft 421 kts 300°
2026-04-26 22:57 61.75008 -151.74412 27401 ft 422 kts 300°
2026-04-26 22:57 61.76772 -151.79384 27767 ft 424 kts 301°
2026-04-26 22:57 61.78544 -151.84382 28165 ft 426 kts 301°
2026-04-26 22:58 61.80326 -151.89421 28383 ft 432 kts 301°
2026-04-26 22:58 61.82135 -151.94556 28682 ft 434 kts 301°
2026-04-26 22:58 61.83944 -151.99696 29045 ft 437 kts 301°
2026-04-26 22:58 61.85760 -152.04871 29410 ft 438 kts 300°
2026-04-26 22:59 61.87581 -152.10070 29748 ft 440 kts 300°
2026-04-26 22:59 61.89409 -152.15304 30088 ft 442 kts 300°
2026-04-26 22:59 61.91243 -152.20564 30355 ft 444 kts 300°
2026-04-26 22:59 61.93086 -152.25862 30593 ft 447 kts 300°
2026-04-26 23:00 61.94932 -152.31184 30850 ft 448 kts 300°
2026-04-26 23:00 61.96783 -152.36527 31098 ft 449 kts 300°
2026-04-26 23:00 61.98638 -152.41900 31301 ft 453 kts 301°
2026-04-26 23:00 62.00494 -152.47287 31416 ft 458 kts 300°
2026-04-26 23:01 62.02375 -152.52759 31690 ft 457 kts 301°
2026-04-26 23:01 62.04247 -152.58218 32005 ft 457 kts 300°
2026-04-26 23:01 62.06123 -152.63700 32310 ft 456 kts 300°
2026-04-26 23:01 62.07994 -152.69182 32622 ft 456 kts 300°
2026-04-26 23:02 62.09853 -152.74643 32909 ft 455 kts 300°
2026-04-26 23:02 62.11713 -152.80119 33208 ft 455 kts 300°
2026-04-26 23:02 62.13566 -152.85586 33459 ft 455 kts 300°
2026-04-26 23:02 62.15354 -152.91152 33753 ft 452 kts 298°
2026-04-26 23:03 62.17091 -152.96753 34033 ft 452 kts 298°
2026-04-26 23:03 62.18842 -153.02372 34147 ft 456 kts 298°
2026-04-26 23:03 62.20606 -153.08035 34368 ft 457 kts 298°
2026-04-26 23:03 62.22348 -153.13638 34576 ft 457 kts 298°
2026-04-26 23:04 62.24111 -153.19318 34831 ft 458 kts 298°
2026-04-26 23:04 62.25873 -153.25008 35009 ft 458 kts 298°
2026-04-26 23:04 62.27634 -153.30714 35210 ft 458 kts 298°
2026-04-26 23:04 62.29391 -153.36418 35431 ft 458 kts 298°
2026-04-26 23:05 62.31144 -153.42128 35639 ft 458 kts 298°
2026-04-26 23:05 62.32904 -153.47864 35830 ft 458 kts 298°
2026-04-26 23:05 62.34656 -153.53598 36008 ft 459 kts 298°
2026-04-26 23:05 62.36410 -153.59354 36204 ft 460 kts 298°
2026-04-26 23:06 62.38170 -153.65141 36311 ft 462 kts 298°
2026-04-26 23:06 62.39930 -153.70941 36513 ft 462 kts 298°
2026-04-26 23:06 62.41690 -153.76758 36726 ft 462 kts 298°
2026-04-26 23:06 62.43445 -153.82573 36919 ft 462 kts 298°
2026-04-26 23:07 62.45175 -153.88321 37109 ft 463 kts 298°
2026-04-26 23:07 62.46926 -153.94147 37269 ft 463 kts 298°
2026-04-26 23:07 62.48680 -153.99999 37456 ft 463 kts 298°
2026-04-26 23:07 62.50423 -154.05855 37633 ft 463 kts 298°
2026-04-26 23:08 62.52170 -154.11733 37798 ft 463 kts 298°
2026-04-26 23:08 62.55658 -154.23511 37792 ft 464 kts 298°
2026-04-26 23:09 62.59137 -154.35318 37804 ft 464 kts 298°
2026-04-26 23:09 62.62606 -154.47153 37790 ft 464 kts 297°
2026-04-26 23:10 62.66063 -154.59010 37789 ft 464 kts 297°
2026-04-26 23:10 62.69511 -154.70896 37787 ft 464 kts 297°
2026-04-26 23:11 62.72956 -154.82834 37799 ft 466 kts 297°
2026-04-26 23:11 62.76385 -154.94784 37786 ft 464 kts 297°
2026-04-26 23:12 62.79780 -155.06675 37785 ft 463 kts 297°
2026-04-26 23:12 62.83178 -155.18638 37775 ft 463 kts 297°
2026-04-26 23:13 62.86573 -155.30656 37765 ft 463 kts 297°
2026-04-26 23:13 62.89963 -155.42719 37772 ft 465 kts 297°
2026-04-26 23:14 62.93335 -155.54769 37760 ft 467 kts 297°
2026-04-26 23:14 62.96369 -155.67275 37792 ft 462 kts 290°
2026-04-26 23:15 62.99070 -155.80132 37770 ft 462 kts 290°
2026-04-26 23:15 63.01738 -155.92997 37774 ft 462 kts 290°
2026-04-26 23:16 63.04398 -156.05907 37774 ft 462 kts 290°
2026-04-26 23:16 63.07041 -156.18819 37775 ft 462 kts 290°
2026-04-26 23:17 63.09677 -156.31774 37762 ft 462 kts 290°
2026-04-26 23:17 63.12286 -156.44680 37762 ft 462 kts 289°
2026-04-26 23:18 63.14895 -156.57666 37756 ft 462 kts 289°
2026-04-26 23:18 63.17492 -156.70673 37772 ft 463 kts 289°
2026-04-26 23:19 63.20089 -156.83766 37728 ft 464 kts 289°
2026-04-26 23:19 63.22676 -156.96895 37736 ft 464 kts 289°
2026-04-26 23:20 63.25250 -157.10044 37708 ft 464 kts 289°
2026-04-26 23:20 63.27812 -157.23214 37706 ft 464 kts 289°
2026-04-26 23:21 63.30344 -157.36315 37683 ft 464 kts 289°
2026-04-26 23:21 63.32888 -157.49564 37677 ft 467 kts 289°
2026-04-26 23:22 63.35427 -157.62877 37649 ft 467 kts 289°
2026-04-26 23:22 63.37956 -157.76222 37650 ft 467 kts 289°
2026-04-26 23:23 63.40467 -157.89565 37693 ft 467 kts 288°
2026-04-26 23:23 63.42969 -158.02950 37683 ft 467 kts 288°
2026-04-26 23:23 63.44216 -158.09652 37793 ft 467 kts 288°
2026-04-26 23:24 63.45447 -158.16292 37763 ft 468 kts 288°
2026-04-26 23:24 63.47936 -158.29787 37758 ft 469 kts 288°
2026-04-26 23:25 63.50410 -158.43294 37767 ft 469 kts 288°
2026-04-26 23:25 63.52872 -158.56829 37768 ft 469 kts 288°
2026-04-26 23:26 63.55321 -158.70389 37761 ft 469 kts 288°
2026-04-26 23:26 63.57742 -158.83882 37769 ft 470 kts 288°
2026-04-26 23:27 63.60171 -158.97512 37762 ft 470 kts 288°
2026-04-26 23:27 63.62590 -159.11191 37758 ft 470 kts 288°
2026-04-26 23:28 63.64996 -159.24886 37753 ft 470 kts 288°
2026-04-26 23:28 63.67390 -159.38613 37754 ft 470 kts 287°
2026-04-26 23:29 63.69768 -159.52348 37771 ft 471 kts 287°
2026-04-26 23:29 63.72144 -159.66168 37754 ft 473 kts 287°
2026-04-26 23:30 63.74509 -159.80025 37745 ft 473 kts 287°
2026-04-26 23:30 63.76845 -159.93809 37748 ft 473 kts 287°
2026-04-26 23:31 63.79185 -160.07720 37741 ft 473 kts 287°
2026-04-26 23:31 63.81511 -160.21645 37769 ft 473 kts 287°
2026-04-26 23:32 63.83830 -160.35599 37736 ft 473 kts 287°
2026-04-26 23:32 63.86134 -160.49563 37733 ft 473 kts 287°
2026-04-26 23:33 63.88428 -160.63564 37733 ft 473 kts 287°
2026-04-26 23:33 63.90529 -160.77703 37734 ft 472 kts 284°
2026-04-26 23:34 63.92603 -160.91842 37754 ft 472 kts 285°
2026-04-26 23:34 63.94674 -161.06018 37727 ft 472 kts 285°
2026-04-26 23:35 63.96718 -161.20121 37712 ft 472 kts 285°
2026-04-26 23:35 63.98766 -161.34364 37691 ft 472 kts 284°
2026-04-26 23:36 64.00456 -161.46204 37708 ft 472 kts 284°
2026-04-26 23:36 64.02476 -161.60473 37704 ft 472 kts 284°
2026-04-26 23:37 64.04484 -161.74771 37702 ft 474 kts 284°
2026-04-26 23:37 64.06481 -161.89116 37698 ft 474 kts 284°
2026-04-26 23:38 64.08454 -162.03404 37696 ft 474 kts 284°
2026-04-26 23:38 64.10424 -162.17796 37699 ft 474 kts 284°
2026-04-26 23:39 64.12381 -162.32216 37696 ft 474 kts 284°
2026-04-26 23:39 64.14321 -162.46636 37314 ft 471 kts 284°
2026-04-26 23:39 64.15279 -162.53806 36800 ft 469 kts 284°
2026-04-26 23:40 64.16229 -162.60945 36230 ft 469 kts 284°
2026-04-26 23:40 64.17178 -162.68110 35586 ft 469 kts 284°
2026-04-26 23:40 64.18124 -162.75281 34934 ft 470 kts 284°
2026-04-26 23:40 64.19067 -162.82463 34313 ft 470 kts 284°
2026-04-26 23:41 64.20007 -162.89649 33691 ft 471 kts 284°
2026-04-26 23:41 64.20948 -162.96881 32966 ft 472 kts 284°
2026-04-26 23:41 64.21883 -163.04102 32250 ft 473 kts 284°
2026-04-26 23:41 64.22808 -163.11265 31556 ft 474 kts 284°
2026-04-26 23:42 64.23752 -163.18624 30864 ft 474 kts 284°
2026-04-26 23:42 64.25601 -163.33105 29378 ft 470 kts 283°
2026-04-26 23:42 64.26504 -163.40215 28571 ft 468 kts 283°
2026-04-26 23:43 64.27413 -163.47396 27774 ft 466 kts 283°
2026-04-26 23:43 64.28308 -163.54503 27003 ft 458 kts 283°
2026-04-26 23:43 64.29175 -163.61495 26253 ft 451 kts 283°
2026-04-26 23:43 64.30031 -163.68406 25524 ft 444 kts 283°
2026-04-26 23:44 64.30870 -163.75202 24800 ft 438 kts 283°
2026-04-26 23:44 64.31697 -163.81923 24116 ft 433 kts 282°
2026-04-26 23:44 64.32511 -163.88557 23493 ft 427 kts 283°
2026-04-26 23:44 64.33308 -163.95083 22834 ft 420 kts 282°
2026-04-26 23:45 64.34093 -164.01532 22132 ft 414 kts 282°
2026-04-26 23:45 64.34631 -164.07963 21438 ft 405 kts 271°
2026-04-26 23:45 64.34843 -164.14411 20768 ft 400 kts 271°
2026-04-26 23:45 64.35039 -164.20780 20114 ft 395 kts 270°
2026-04-26 23:46 64.35218 -164.27087 19467 ft 392 kts 270°
2026-04-26 23:46 64.35384 -164.33331 18840 ft 388 kts 270°
2026-04-26 23:46 64.35545 -164.39543 18223 ft 385 kts 270°
2026-04-26 23:46 64.35700 -164.45686 17625 ft 381 kts 270°
2026-04-26 23:47 64.35851 -164.51778 17006 ft 380 kts 270°
2026-04-26 23:47 64.36000 -164.57874 16381 ft 382 kts 270°
2026-04-26 23:47 64.36147 -164.63996 15775 ft 383 kts 270°
2026-04-26 23:47 64.36292 -164.70149 15193 ft 385 kts 270°
2026-04-26 23:48 64.36432 -164.76247 14615 ft 386 kts 270°
2026-04-26 23:48 64.36574 -164.82457 14039 ft 387 kts 270°
2026-04-26 23:48 64.36712 -164.88686 13461 ft 388 kts 270°
2026-04-26 23:48 64.36849 -164.94914 12826 ft 389 kts 270°
2026-04-26 23:49 64.36982 -165.01115 12177 ft 381 kts 270°
2026-04-26 23:49 64.37108 -165.07129 11565 ft 371 kts 269°
2026-04-26 23:49 64.37229 -165.13017 10955 ft 363 kts 269°
2026-04-26 23:49 64.37346 -165.18769 10401 ft 354 kts 269°
2026-04-26 23:50 64.37458 -165.24413 9867 ft 348 kts 269°
2026-04-26 23:50 64.37566 -165.29970 9423 ft 346 kts 269°
2026-04-26 23:50 64.37671 -165.35520 8958 ft 345 kts 269°
2026-04-26 23:50 64.37773 -165.40984 8527 ft 344 kts 269°
2026-04-26 23:51 64.37875 -165.46561 8084 ft 342 kts 269°
2026-04-26 23:51 64.37973 -165.52042 7662 ft 341 kts 269°
2026-04-26 23:51 64.38068 -165.57428 7248 ft 339 kts 269°
2026-04-26 23:51 64.38367 -165.62830 6901 ft 337 kts 284°
2026-04-26 23:52 64.39115 -165.67904 6608 ft 331 kts 289°
2026-04-26 23:52 64.39916 -165.72899 6345 ft 331 kts 289°
2026-04-26 23:52 64.40713 -165.77885 6091 ft 330 kts 289°
2026-04-26 23:52 64.41505 -165.82859 5815 ft 329 kts 289°
2026-04-26 23:53 64.42293 -165.87814 5541 ft 328 kts 289°
2026-04-26 23:53 64.43079 -165.92754 5265 ft 326 kts 289°
2026-04-26 23:53 64.43861 -165.97673 4988 ft 325 kts 289°
2026-04-26 23:53 64.44639 -166.02569 4754 ft 323 kts 289°
2026-04-26 23:54 64.45441 -166.07435 4511 ft 322 kts 296°
2026-04-26 23:54 64.46826 -166.11403 4242 ft 315 kts 328°
2026-04-26 23:54 64.48768 -166.13233 3975 ft 293 kts
2026-04-26 23:54 64.50717 -166.12883 3772 ft 274 kts 19°
2026-04-26 23:55 64.52536 -166.12068 3597 ft 266 kts 19°
2026-04-26 23:55 64.54352 -166.11272 3435 ft 258 kts 19°
2026-04-26 23:55 64.56098 -166.10528 3267 ft 252 kts 19°
2026-04-26 23:55 64.57678 -166.09349 3093 ft 232 kts 41°
2026-04-26 23:56 64.58738 -166.06867 2991 ft 208 kts 69°
2026-04-26 23:56 64.59082 -166.03739 2924 ft 198 kts 91°
2026-04-26 23:56 64.59053 -166.00521 2928 ft 199 kts 97°
2026-04-26 23:56 64.58863 -165.97310 2826 ft 200 kts 102°
2026-04-26 23:57 64.58570 -165.94161 2823 ft 199 kts 105°
2026-04-26 23:57 64.58196 -165.91068 2908 ft 199 kts 107°
2026-04-26 23:57 64.57774 -165.88006 2805 ft 198 kts 108°
2026-04-26 23:57 64.57329 -165.84979 2813 ft 198 kts 109°
2026-04-26 23:58 64.56881 -165.82009 2864 ft 188 kts 109°
2026-04-26 23:58 64.56458 -165.79242 2905 ft 176 kts 109°
2026-04-26 23:58 64.56051 -165.76602 2848 ft 171 kts 109°
2026-04-26 23:58 64.55732 -165.74540 2772 ft 161 kts 109°
2026-04-26 23:59 64.55353 -165.72117 2693 ft 158 kts 110°
2026-04-26 23:59 64.54980 -165.69791 2539 ft 150 kts 109°
2026-04-26 23:59 64.54622 -165.67570 2429 ft 146 kts 109°
2026-04-26 23:59 64.54282 -165.65352 2192 ft 145 kts 108°
2026-04-27 00:00 64.53964 -165.63183 1906 ft 135 kts 108°
2026-04-27 00:00 64.53651 -165.61203 1657 ft 129 kts 109°
2026-04-27 00:00 64.53336 -165.59247 1417 ft 129 kts 108°
2026-04-27 00:00 64.53039 -165.57303 1233 ft 131 kts 107°
2026-04-27 00:01 64.52719 -165.55216 1009 ft 134 kts 108°
2026-04-27 00:01 64.52398 -165.53222 808 ft 135 kts 106°
2026-04-27 00:01 64.52094 -165.51108 587 ft 139 kts 105°
2026-04-27 00:01 64.51759 -165.48962 364 ft 148 kts 107°
2026-04-27 00:02 64.51415 -165.46723 91 ft 143 kts 107°
2026-04-27 00:02 64.51113 -165.44767 40 ft 102 kts 110°
2026-04-27 00:02 64.50992 -165.44036 42 ft 25 kts 136°
2026-04-27 00:02 64.50895 -165.44056 41 ft 10 kts 200°
2026-04-27 00:03 64.50888 -165.44062 43 ft 0 kts 200°
2026-04-27 00:04 64.50886 -165.44064 43 ft 2 kts 201°
2026-04-27 00:04 64.50863 -165.44081 43 ft 5 kts 185°
2026-04-27 00:04 64.50810 -165.44055 40 ft 10 kts 177°
2026-04-27 00:04 64.50784 -165.44102 43 ft 4 kts 258°
2026-04-27 00:05 64.50791 -165.44163 43 ft 0 kts 290°
2026-04-27 00:05 64.50792 -165.44169 43 ft 0 kts 290°